Orbital Elements at Epoch 2459200.5 (2020-Dec-17.0) TDB
Reference: JPL 19 (heliocentric ecliptic J2000)
Element | Value | Uncertainty (1-sigma) | Units |
e | .09208675917724708 | 5.0419e-08 | |
a | 2.623317934578543 | 1.883e-08 | au |
q | 2.381745087691656 | 1.3365e-07 | au |
i | 8.276338512045715 | 5.796e-06 | deg |
node | 340.8300427309622 | 2.6333e-05 | deg |
peri | 352.9651303453235 | 3.4396e-05 | deg |
M | 250.1923938308923 | 2.5025e-05 | deg |
tp | 2459673.874372648119 (2022-Apr-04.37437265) | 0.00011022 | TDB |
period | 1551.939616012374 4.25 | 1.671e-05 4.575e-08 | d yr |
n | .2319677881057001 | 2.4976e-09 | deg/d |
Q | 2.864890781465431 | 2.0564e-08 | au |
|
| | Orbit Determination Parameters
Additional Information
|